Temperature
20 21 21 21 17 15 17 19 19 19 19 20 21 20 19 19 18 18 19 18 17 16 15 14 14 14 14 13 13 12 11 11 10 10 9 9 9 9 9 9 8 8 8 8 8 8 8 8 8
20 20 21 20 16 16 17 18 19 19 20 20 20 20 19 19 19 19 20 19 17 16 15 15 14 14 14 14 13 12 12 11 10 10 10 9 9 9 8 8 8 8 8 8 8 8 8 8 8
20 20 20 16 16 16 19 18 17 19 20 20 20 20 20 20 20 20 20 19 17 16 15 15 14 14 14 14 13 13 12 11 11 10 10 9 9 9 8 8 8 8 8 8 8 8 8 8 8
20 20 20 16 18 17 19 18 17 17 19 20 20 19 19 20 20 20 20 19 18 17 15 15 14 14 14 14 14 13 12 12 11 11 10 10 9 9 9 9 9 9 9 9 9 9 9 9 8
20 20 17 17 17 18 18 19 19 17 18 19 19 18 19 20 20 20 20 19 19 17 16 15 14 14 14 14 13 13 13 12 11 11 10 10 10 10 10 9 9 9 9 9 9 9 9 9 9
20 18 16 16 17 18 19 20 18 18 18 19 19 18 19 20 20 19 19 19 19 18 16 15 14 14 14 13 13 13 13 12 12 11 11 10 10 10 10 10 10 9 9 9 9 9 9 9 9
20 16 17 17 17 17 19 20 19 19 18 19 20 18 19 20 19 18 18 18 18 17 16 15 14 13 13 13 13 13 13 13 12 12 11 11 11 11 11 11 10 10 10 10 10 10 10 9 9
20 16 18 17 17 18 20 20 21 21 20 21 20 18 19 20 19 17 16 16 16 16 16 15 14 14 13 13 13 13 13 13 12 12 12 12 11 11 11 11 11 10 10 10 10 10 10 9 9
20 16 16 17 18 19 20 20 21 20 20 20 20 20 20 20 19 17 15 15 15 15 15 15 14 14 13 13 13 12 12 12 12 12 12 12 12 11 11 11 11 10 10 10 10 10 10 10 9
19 15 16 17 19 19 20 20 20 19 19 19 19 19 19 19 19 18 17 16 16 16 16 15 14 14 13 13 12 12 12 12 12 12 12 12 12 11 11 11 11 11 10 10 10 10 10 10 9
18 16 16 18 20 20 19 19 19 18 15 18 19 20 19 19 18 18 18 18 18 17 16 16 15 14 13 13 12 12 12 12 12 12 12 12 12 11 11 11 11 11 10 10 10 10 10 10 9
18 17 19 20 20 19 19 19 18 18 19 20 19 19 19 19 18 18 18 18 17 17 17 16 15 14 14 13 12 12 12 12 12 12 12 12 12 12 12 11 11 11 10 10 10 10 10 10 9
18 18 19 19 19 19 19 18 17 18 21 19 19 18 18 18 19 19 18 18 17 17 16 16 16 15 14 13 13 12 12 12 12 12 12 12 12 12 12 11 11 10 10 10 9 9 9 9 9
18 18 18 19 19 19 18 17 17 20 21 20 20 19 19 19 19 18 18 18 17 17 17 16 16 15 14 14 13 13 13 12 12 12 12 12 11 11 11 11 11 10 10 9 9 9 9 9 9
18 16 15 17 17 17 17 16 15 21 20 20 20 20 19 19 19 19 19 19 19 18 17 16 16 15 14 14 13 13 12 12 12 12 12 11 11 11 11 11 10 10 9 9 9 8 8 8 8
17 15 15 16 16 16 17 16 16 20 19 18 19 19 20 19 19 19 19 19 19 18 18 17 15 15 14 14 13 13 12 12 12 11 11 11 11 11 10 10 10 10 9 9 8 8 8 8 8
15 15 16 16 16 15 16 15 15 18 17 17 18 19 19 19 19 19 19 19 19 18 18 17 16 15 14 13 13 12 12 11 11 11 10 10 10 10 10 10 10 9 9 8 8 8 8 8 8
16 16 15 15 16 16 15 14 15 17 17 16 17 18 18 18 18 19 19 19 19 18 17 17 16 15 14 13 12 11 11 10 10 10 10 9 9 9 8 9 9 8 8 8 8 8 8 7 7
16 16 15 15 16 16 15 14 15 16 16 16 17 17 17 18 18 19 19 19 18 18 17 17 16 15 14 13 13 12 12 11 11 10 10 9 9 8 8 8 8 7 7 7 7 7 7 7 6
16 16 15 14 15 15 14 13 14 15 16 16 16 16 17 17 18 18 18 18 18 17 17 16 16 15 14 14 13 13 12 11 11 10 9 9 9 8 8 7 7 7 6 6 6 6 6 6 5
16 15 15 15 13 13 14 14 14 15 15 15 16 16 16 16 16 17 17 17 16 16 16 15 15 14 14 13 13 12 11 11 10 10 10 10 9 8 8 7 7 6 6 6 6 5 5 5 5
15 16 15 15 13 12 13 13 14 15 15 14 14 15 15 16 16 16 16 16 16 15 15 15 14 14 13 13 12 12 11 11 11 10 10 9 9 8 7 7 6 6 6 5 5 5 5 4 4
16 15 15 14 13 12 12 12 12 14 15 14 14 14 15 15 15 15 15 15 15 15 14 14 14 13 12 12 11 11 11 10 10 9 9 9 8 8 7 7 6 6 5 5 5 5 4 4 4
15 14 13 11 10 12 13 12 13 12 14 13 13 14 14 14 14 14 14 14 14 14 14 13 13 13 12 12 11 11 10 10 9 9 9 8 8 7 7 6 6 6 5 5 5 4 4 4 3
14 13 13 14 12 13 13 13 13 14 13 13 13 14 14 14 14 13 13 13 13 13 13 13 12 12 12 12 11 11 10 10 9 9 9 8 8 7 7 6 6 6 5 5 5 4 4 4 3
14 13 13 14 12 12 12 13 13 13 13 14 14 14 14 13 13 13 13 13 13 12 12 12 12 11 11 11 10 10 10 9 9 9 8 8 8 7 7 6 6 5 5 5 4 4 4 3 3
15 13 12 11 12 12 11 12 13 13 12 12 13 13 13 13 13 13 12 12 12 12 12 11 11 11 11 10 10 9 9 9 9 8 8 8 7 7 7 6 6 5 5 4 4 3 3 3 3
14 12 11 12 12 11 11 12 13 13 12 11 11 12 13 13 13 12 12 12 12 11 11 11 10 10 10 9 9 9 8 8 8 8 8 7 7 7 7 6 6 5 5 4 4 3 3 3 3
13 13 12 10 10 10 11 11 13 13 12 11 11 13 13 13 12 12 12 11 11 11 10 10 10 10 9 9 8 8 8 8 7 7 7 7 7 6 6 6 5 5 5 4 4 3 3 3 2
12 12 11 11 11 9 9 11 13 12 12 12 12 13 12 12 12 11 11 11 10 10 10 10 9 9 8 8 8 7 7 7 7 7 6 6 6 6 5 5 5 4 4 4 3 3 3 2 2
Wind_Speed
6 4 3 4 6 5 3 4 5 5 4 3 5 7 6 4 5 4 2 12 13 19 26 26 26 24 22 20 18 17 15 14 13 13 12 12 11 11 11 11 11 11 12 12 13 14 14 14 15
3 3 5 5 5 1 5 3 6 6 7 4 4 6 4 5 2 5 7 11 19 23 25 25 26 25 23 21 20 18 17 16 14 13 13 12 11 11 11 11 11 11 11 11 12 12 13 13 13
2 2 4 5 3 5 4 6 7 4 5 6 4 3 4 5 5 8 8 15 21 23 24 25 27 26 24 22 21 19 18 17 16 14 14 13 12 11 11 10 10 10 10 10 10 11 11 12 12
3 5 5 4 5 7 7 9 7 6 4 4 7 4 3 3 8 8 10 19 18 18 23 26 28 26 25 23 22 21 19 18 17 16 14 13 12 12 11 10 10 9 9 9 9 9 10 10 10
4 4 4 2 7 6 6 8 9 9 7 6 7 7 5 2 5 9 16 19 20 17 23 25 28 27 25 24 23 22 20 19 18 17 15 14 13 12 11 11 10 9 9 8 8 8 8 8 9
4 5 3 4 8 7 4 6 7 6 5 4 7 6 6 1 7 10 16 17 17 18 23 24 27 27 26 25 24 22 21 20 19 18 17 16 15 13 12 11 10 9 8 7 7 6 6 6 7
4 4 3 5 6 7 4 4 6 6 6 8 9 7 5 3 6 9 12 10 13 19 20 20 24 26 26 25 24 23 22 21 20 19 18 17 16 15 14 13 11 10 9 8 7 6 5 5 5
5 4 2 4 5 7 4 1 3 5 6 4 10 9 8 8 8 9 9 9 9 12 16 18 20 22 23 24 24 24 23 22 21 20 19 18 17 16 15 14 13 12 10 9 7 6 5 4 4
5 4 4 6 5 6 3 2 3 2 2 2 5 5 4 10 12 11 8 7 9 13 12 16 16 19 21 21 23 24 23 22 21 20 19 18 16 15 15 15 14 13 12 10 9 8 7 6 4
5 3 8 6 5 5 3 4 4 3 5 5 3 2 4 12 16 17 15 15 16 17 16 12 16 18 19 20 21 20 21 21 21 19 19 18 16 15 14 16 16 15 14 12 11 10 9 7 6
6 7 7 7 6 5 4 5 3 5 9 11 10 8 9 10 14 17 19 19 19 16 16 15 16 19 19 18 17 17 18 18 19 20 19 18 17 16 15 15 16 15 15 12 11 9 8 8 8
5 8 7 6 4 4 5 4 5 7 13 9 10 8 11 15 18 20 21 19 14 12 17 16 16 17 20 19 17 16 16 16 17 20 22 19 15 14 15 15 15 14 13 13 12 10 10 10 11
6 7 6 6 6 6 5 5 5 10 14 9 7 9 15 18 19 19 17 15 13 14 16 15 15 16 19 18 18 18 18 18 19 20 23 22 17 14 15 15 16 16 15 15 14 13 13 12 13
4 5 8 9 9 5 6 5 3 13 7 7 7 10 15 19 21 16 14 16 18 19 18 16 19 18 19 17 16 16 20 19 20 21 23 24 21 17 15 14 15 16 18 18 16 15 13 13 13
3 6 10 7 3 3 2 7 8 12 7 10 9 8 12 17 16 19 20 21 22 19 17 17 17 16 16 16 18 19 20 21 21 22 23 24 23 20 17 14 13 16 19 18 16 15 13 10 10
3 4 6 7 1 2 3 9 11 8 7 9 9 7 6 10 13 17 17 17 17 15 15 17 17 17 16 15 16 17 19 21 21 22 23 25 25 23 19 14 14 18 17 16 11 8 6 7 7
3 3 5 8 2 3 4 10 11 6 6 7 8 7 4 3 5 10 13 15 15 15 15 16 16 17 17 13 14 15 16 19 20 21 22 23 24 24 21 16 15 17 14 13 11 8 7 8 8
3 5 6 7 5 4 6 12 15 8 3 2 5 8 8 7 6 7 7 10 11 12 13 14 16 15 14 10 8 8 9 10 16 18 20 21 22 23 22 17 16 16 9 9 8 9 8 7 7
5 5 8 8 5 4 8 12 14 6 2 4 5 8 9 8 8 9 5 1 5 8 11 13 14 14 11 8 9 10 12 10 8 14 19 21 22 23 21 16 14 14 10 12 11 8 9 8 4
5 5 7 7 5 4 7 10 8 1 4 4 6 7 8 9 11 11 9 6 1 5 8 10 12 12 13 13 11 7 7 6 7 8 14 20 22 22 22 17 11 12 10 11 11 10 7 7 7
5 6 5 5 8 6 5 8 6 5 4 5 5 5 6 7 8 9 9 7 4 1 4 7 9 11 12 11 6 3 2 2 4 7 8 14 21 22 23 20 17 13 13 14 14 13 13 11 9
5 3 2 2 5 6 4 3 5 2 1 3 4 5 5 6 7 7 8 7 6 4 2 2 5 7 8 8 8 10 10 11 11 10 10 10 17 20 22 21 19 14 14 16 15 15 13 13 12
4 0 2 0 1 4 2 3 7 3 5 4 2 2 2 4 6 6 7 7 7 6 5 3 0 3 5 7 10 10 12 13 9 7 9 10 10 15 19 20 17 15 15 16 15 14 15 15 15
2 5 5 5 4 3 3 5 6 6 8 7 4 3 1 3 4 5 6 6 7 7 6 5 3 1 3 6 8 10 13 13 11 10 10 10 9 10 13 16 15 15 15 16 17 16 17 17 17
5 5 5 5 4 5 4 3 8 7 6 9 9 6 3 1 2 3 6 7 7 7 6 5 4 3 3 4 7 9 12 12 14 13 12 11 10 10 12 14 15 16 16 15 14 16 18 19 17
3 6 5 3 4 6 6 5 7 5 5 7 6 5 3 2 1 1 2 3 4 5 5 5 4 4 4 4 6 8 9 8 10 11 11 11 11 11 11 13 15 16 16 16 16 16 18 16 19
3 4 6 5 1 4 7 7 6 5 6 4 4 4 4 3 2 0 2 2 3 4 4 4 4 5 6 6 6 7 7 8 10 11 9 10 11 10 11 11 13 15 16 16 16 16 18 17 18
2 6 5 4 2 4 7 6 4 5 5 5 5 6 5 4 3 2 2 2 3 3 4 4 4 5 5 6 6 6 7 8 8 8 9 10 11 10 11 11 12 13 14 15 15 16 16 17 18
5 4 4 4 4 5 4 7 5 7 7 7 7 6 6 5 4 4 4 4 4 4 5 5 5 5 6 6 6 7 8 8 7 8 9 10 10 10 10 11 11 12 14 14 14 16 15 18 18
7 8 8 4 5 5 4 8 5 5 6 6 5 4 3 3 3 4 4 5 5 6 7 6 6 6 7 6 7 7 8 8 8 9 10 10 10 10 10 10 11 12 13 13 14 16 16 17 18
Wind_Direction
324 11 69 56 53 46 283 265 169 165 181 181 132 118 143 180 190 218 146 149 147 162 172 173 173 171 169 167 165 162 158 154 150 144 138 132 126 120 114 107 101 95 90 85 81 78 75 74 74
351 46 59 61 84 36 284 257 173 190 183 146 115 116 139 220 201 149 147 169 157 165 171 173 174 173 171 169 168 166 163 161 157 153 147 142 136 131 125 117 111 105 98 91 87 83 79 76 76
348 72 83 76 133 192 222 225 199 203 182 158 142 137 181 209 192 188 188 163 159 168 172 175 176 175 173 172 171 170 168 166 163 160 155 150 145 140 134 127 121 114 107 99 93 88 83 80 79
58 52 60 84 239 231 215 215 202 167 204 190 151 169 230 211 186 188 163 159 161 170 173 179 179 178 176 175 174 173 173 171 169 166 163 158 154 149 143 137 132 127 120 112 102 95 88 83 81
61 75 60 312 268 266 237 205 180 181 195 200 171 185 236 258 167 151 155 163 166 170 175 183 182 181 180 178 178 177 177 176 174 172 169 166 162 158 153 150 146 140 133 125 115 105 96 89 85
56 68 84 270 279 293 267 188 175 197 211 201 176 183 242 305 159 163 162 167 169 170 176 185 185 185 184 183 181 181 181 180 179 178 176 173 170 167 165 162 159 154 148 140 132 119 108 99 93
109 104 193 250 285 299 281 175 187 195 203 211 182 183 263 254 200 156 154 153 164 171 176 187 190 188 188 188 186 185 185 185 184 183 182 180 178 177 175 173 171 169 165 160 154 146 134 119 108
123 109 236 262 275 287 292 215 221 202 221 193 152 175 236 216 165 135 132 144 162 174 181 189 192 188 189 191 191 190 189 189 189 189 187 186 186 186 184 182 182 182 180 179 178 175 172 160 139
88 89 241 245 245 267 279 279 276 312 242 212 186 206 247 143 137 136 142 159 175 186 191 190 191 189 189 191 195 194 194 194 194 193 192 191 191 191 190 185 190 192 192 193 195 197 199 196 193
96 170 234 228 219 237 248 244 260 269 259 249 244 334 101 141 158 169 179 185 190 194 195 193 192 189 187 193 198 196 195 196 195 194 193 190 188 191 192 194 200 201 201 203 206 211 212 208 215
168 199 233 248 241 226 239 248 248 221 249 226 220 202 160 166 177 187 194 195 197 193 193 197 195 190 189 192 195 195 193 194 193 192 190 188 189 195 203 207 212 209 207 207 214 222 215 215 221
219 237 230 248 220 212 233 254 276 236 240 228 225 180 172 181 190 197 202 205 197 189 197 197 194 193 193 193 194 194 192 192 191 192 191 187 191 201 209 212 214 209 204 204 214 224 227 231 232
237 258 274 275 266 249 245 249 265 264 262 268 250 170 187 195 202 207 209 208 200 201 199 197 194 195 194 195 197 199 199 198 195 195 196 195 196 204 209 212 212 211 209 209 214 222 230 235 236
261 281 292 281 265 244 235 272 243 270 289 299 254 207 204 206 209 209 211 212 210 210 204 196 197 198 195 199 202 203 203 201 198 201 203 202 204 206 206 210 212 214 214 214 215 219 223 229 232
326 329 318 298 267 239 158 292 243 256 321 310 290 252 219 219 215 213 214 214 213 212 206 199 198 196 198 201 203 205 204 203 206 208 208 208 209 208 207 210 213 216 217 217 219 223 225 229 231
14 5 320 305 136 166 155 267 264 287 321 311 313 304 258 234 223 226 224 223 218 212 206 204 202 198 201 203 202 205 204 205 211 211 211 212 213 211 209 213 217 217 214 213 213 214 215 226 226
18 316 284 299 226 186 215 259 276 321 317 315 333 342 339 306 260 242 232 225 218 211 205 202 203 201 201 200 200 202 203 208 212 211 212 214 214 213 212 217 218 215 212 213 220 214 210 221 227
258 273 274 277 287 213 240 264 286 314 308 339 8 23 30 22 330 289 253 227 214 206 203 202 203 205 197 191 190 197 206 211 212 213 215 212 212 212 213 219 216 210 210 217 219 221 216 221 222
228 244 270 267 285 299 265 277 291 306 67 78 49 36 31 13 347 355 353 208 188 195 198 200 202 202 189 187 196 204 215 213 212 215 214 213 213 211 212 220 214 209 217 222 217 220 224 229 197
230 266 280 295 334 315 292 298 306 30 116 109 78 50 36 20 12 10 18 34 149 205 208 205 204 198 197 204 204 203 211 216 217 218 218 216 215 215 218 219 217 212 218 222 216 211 221 222 190
258 241 257 289 328 347 350 346 4 33 65 61 48 42 35 36 24 11 15 23 23 306 228 218 212 204 203 200 186 178 171 264 224 223 224 218 217 217 220 221 220 216 216 226 221 213 216 227 212
268 242 227 314 6 313 21 308 281 270 78 63 47 40 38 33 31 22 17 16 9 347 324 243 215 208 204 189 190 198 212 226 228 227 229 222 218 220 221 223 222 221 221 227 224 218 218 219 228
236 291 258 237 93 319 310 192 278 238 196 201 171 97 56 42 40 29 20 17 12 9 18 15 126 211 202 198 204 211 228 238 244 237 236 234 227 226 225 224 224 226 226 228 226 221 217 219 228
50 44 51 52 64 319 247 176 271 220 204 189 190 186 131 57 40 26 17 23 17 16 23 27 28 313 221 211 217 223 236 245 252 249 245 245 240 234 229 227 228 229 230 229 227 225 222 224 225
71 63 11 348 0 270 285 224 254 252 200 171 173 182 187 127 47 21 27 24 17 16 11 9 7 331 289 236 234 234 241 246 250 254 252 252 251 245 237 231 233 234 234 232 228 226 228 227 227
179 138 158 237 261 292 319 259 273 325 95 120 141 164 178 183 242 359 22 19 4 6 6 356 343 318 305 274 259 252 248 250 255 256 254 255 256 254 245 234 237 237 236 234 230 231 231 231 231
159 170 171 143 259 276 289 296 324 38 75 105 141 170 194 209 219 310 357 3 353 351 345 331 320 308 302 287 279 274 263 254 257 263 260 261 262 262 254 244 242 242 240 237 233 234 234 232 232
146 145 105 136 213 272 294 288 234 202 200 187 197 204 215 224 240 262 303 325 335 331 325 325 306 291 289 289 280 275 273 266 265 270 270 266 267 266 265 259 252 250 246 242 238 239 237 235 234
163 179 155 145 164 179 264 275 233 203 193 189 208 216 221 233 250 276 301 321 328 329 326 320 313 306 302 296 288 285 284 283 281 274 272 271 272 271 268 266 262 257 253 247 243 242 238 237 238
186 186 154 169 227 192 202 267 281 170 172 181 200 221 240 257 277 294 308 326 329 324 320 317 310 304 297 295 294 290 289 291 288 282 278 276 274 272 269 269 267 264 260 253 247 247 243 240 239
Height
1550 1552 1553 1554 1557 1567 1567 1558 1553 1553 1552 1550 1550 1551 1553 1554 1558 1560 1555 1553 1554 1556 1559 1561 1564 1567 1568 1569 1570 1571 1571 1571 1572 1572 1572 1572 1572 1572 1571 1571 1570 1570 1569 1568 1567 1566 1565 1565 1564
1550 1552 1554 1553 1564 1574 1568 1556 1553 1549 1548 1548 1549 1550 1551 1551 1551 1551 1550 1551 1553 1555 1557 1560 1563 1565 1567 1568 1569 1570 1570 1571 1571 1571 1571 1572 1571 1571 1571 1571 1570 1570 1569 1569 1568 1567 1566 1565 1564
1550 1551 1553 1555 1564 1570 1561 1554 1550 1547 1547 1547 1548 1549 1549 1549 1549 1549 1549 1550 1551 1553 1556 1558 1561 1563 1565 1567 1568 1569 1569 1570 1570 1571 1571 1571 1571 1571 1571 1571 1570 1570 1569 1569 1568 1568 1567 1566 1565
1551 1552 1553 1559 1561 1557 1552 1548 1547 1547 1547 1546 1546 1548 1547 1547 1547 1547 1548 1549 1550 1551 1554 1557 1559 1561 1563 1565 1566 1567 1568 1569 1569 1570 1570 1570 1571 1571 1571 1570 1570 1570 1569 1569 1568 1568 1567 1566 1566
1550 1551 1556 1562 1558 1551 1545 1543 1545 1545 1544 1544 1545 1544 1544 1544 1544 1545 1546 1547 1548 1550 1552 1555 1557 1560 1562 1563 1565 1566 1567 1567 1568 1569 1569 1570 1570 1570 1570 1570 1570 1569 1569 1569 1568 1568 1567 1567 1566
1551 1552 1563 1566 1558 1549 1543 1541 1544 1543 1543 1543 1544 1543 1541 1541 1541 1543 1545 1546 1548 1549 1551 1553 1555 1558 1560 1561 1563 1564 1565 1566 1567 1567 1568 1569 1569 1569 1569 1569 1569 1569 1569 1569 1568 1568 1567 1567 1566
1551 1555 1561 1559 1557 1551 1544 1542 1543 1542 1541 1541 1540 1541 1538 1538 1539 1541 1543 1545 1546 1548 1549 1551 1553 1555 1557 1559 1561 1562 1563 1564 1565 1566 1567 1567 1568 1568 1569 1569 1569 1569 1569 1568 1568 1568 1567 1567 1566
1549 1554 1556 1557 1555 1550 1543 1542 1541 1540 1539 1538 1538 1538 1536 1535 1537 1538 1541 1543 1544 1546 1547 1549 1551 1553 1554 1556 1558 1560 1561 1562 1563 1564 1565 1566 1567 1567 1568 1568 1568 1568 1568 1568 1567 1567 1567 1567 1566
1549 1557 1560 1555 1552 1547 1542 1541 1541 1539 1538 1536 1535 1534 1534 1534 1534 1536 1538 1539 1541 1542 1544 1546 1548 1550 1552 1554 1556 1557 1559 1560 1561 1562 1563 1564 1565 1566 1566 1567 1567 1567 1567 1566 1566 1566 1566 1566 1565
1548 1558 1554 1547 1545 1543 1541 1541 1539 1538 1536 1534 1532 1531 1531 1531 1531 1532 1533 1534 1535 1537 1539 1542 1544 1546 1549 1551 1552 1554 1556 1557 1558 1560 1561 1562 1563 1564 1565 1565 1565 1565 1565 1565 1565 1565 1564 1564 1564
1546 1549 1545 1542 1541 1540 1540 1538 1537 1535 1533 1529 1528 1528 1527 1528 1528 1528 1529 1530 1531 1533 1536 1538 1540 1542 1545 1547 1549 1550 1552 1554 1555 1557 1558 1560 1561 1561 1562 1563 1563 1563 1563 1563 1563 1563 1563 1562 1562
1544 1542 1540 1539 1538 1538 1537 1535 1533 1531 1526 1525 1526 1525 1524 1524 1524 1525 1525 1526 1528 1529 1531 1534 1536 1538 1541 1543 1545 1546 1548 1549 1551 1553 1555 1556 1557 1558 1559 1560 1561 1561 1561 1561 1561 1561 1560 1560 1559
1542 1539 1538 1537 1536 1535 1534 1532 1532 1525 1522 1522 1522 1521 1520 1520 1519 1520 1522 1524 1525 1525 1527 1529 1532 1534 1536 1538 1540 1542 1543 1545 1547 1549 1551 1553 1554 1555 1556 1557 1557 1558 1558 1558 1558 1558 1557 1557 1557
1540 1538 1536 1533 1532 1531 1531 1530 1530 1521 1520 1519 1518 1516 1515 1515 1515 1516 1517 1518 1519 1520 1522 1524 1526 1529 1531 1533 1534 1536 1538 1540 1543 1544 1546 1548 1550 1551 1552 1553 1553 1554 1555 1555 1555 1555 1554 1553 1553
1539 1538 1535 1529 1527 1528 1529 1530 1525 1518 1518 1516 1514 1513 1511 1511 1511 1511 1511 1512 1514 1516 1518 1519 1521 1524 1526 1528 1530 1532 1533 1536 1537 1539 1542 1543 1545 1546 1547 1548 1549 1550 1551 1551 1551 1550 1550 1549 1548
1539 1542 1542 1531 1528 1528 1532 1533 1519 1518 1517 1514 1511 1509 1507 1507 1507 1508 1509 1509 1510 1512 1514 1516 1518 1519 1521 1523 1525 1527 1528 1530 1532 1534 1536 1538 1540 1541 1542 1543 1543 1546 1546 1546 1546 1546 1545 1544 1543
1545 1549 1544 1536 1529 1529 1530 1529 1516 1517 1515 1512 1510 1507 1505 1504 1505 1505 1505 1505 1506 1508 1510 1512 1514 1515 1517 1519 1521 1523 1524 1525 1527 1528 1530 1531 1534 1535 1536 1537 1538 1540 1540 1540 1540 1539 1539 1538 1537
1546 1545 1543 1540 1530 1529 1530 1526 1516 1515 1514 1512 1510 1508 1506 1505 1505 1504 1503 1502 1502 1504 1506 1509 1511 1512 1514 1516 1518 1519 1520 1520 1521 1522 1523 1525 1527 1528 1530 1530 1531 1533 1533 1532 1532 1532 1532 1531 1531
1539 1541 1543 1537 1528 1528 1527 1524 1516 1513 1513 1512 1511 1509 1508 1507 1506 1504 1502 1501 1501 1501 1503 1505 1507 1509 1511 1512 1513 1514 1514 1515 1516 1517 1518 1519 1520 1521 1522 1522 1523 1524 1524 1524 1525 1525 1524 1523 1525
1537 1540 1540 1534 1528 1529 1527 1524 1516 1512 1514 1514 1513 1512 1510 1508 1506 1504 1503 1501 1501 1501 1501 1503 1504 1506 1507 1508 1509 1510 1511 1511 1512 1513 1512 1513 1513 1513 1514 1514 1514 1515 1515 1515 1515 1516 1515 1515 1516
1536 1537 1536 1536 1533 1529 1528 1526 1520 1516 1515 1515 1515 1514 1512 1510 1508 1506 1504 1503 1502 1501 1501 1501 1502 1503 1504 1505 1506 1506 1507 1506 1506 1506 1506 1506 1506 1506 1506 1505 1505 1505 1505 1505 1505 1506 1506 1505 1506
1538 1531 1532 1533 1538 1541 1536 1542 1527 1520 1518 1517 1516 1515 1514 1512 1510 1508 1506 1504 1503 1502 1501 1500 1500 1501 1502 1503 1503 1502 1501 1500 1499 1500 1500 1500 1499 1498 1497 1497 1496 1496 1495 1494 1495 1495 1495 1496 1494
1531 1530 1532 1533 1537 1543 1539 1542 1533 1521 1521 1518 1517 1516 1515 1513 1512 1509 1507 1506 1504 1503 1501 1500 1500 1500 1500 1500 1500 1499 1497 1496 1495 1494 1493 1492 1491 1490 1489 1488 1488 1486 1485 1484 1484 1484 1484 1483 1483
1530 1533 1535 1541 1545 1545 1535 1541 1532 1523 1517 1516 1516 1516 1515 1514 1513 1511 1509 1508 1506 1505 1503 1502 1501 1500 1499 1498 1497 1496 1494 1492 1491 1488 1487 1485 1484 1482 1481 1480 1479 1477 1475 1474 1473 1473 1473 1471 1470
1532 1541 1549 1545 1550 1543 1533 1534 1528 1513 1509 1511 1513 1515 1516 1515 1514 1512 1511 1509 1507 1506 1505 1503 1502 1501 1499 1498 1496 1494 1492 1489 1486 1484 1481 1479 1476 1474 1472 1472 1469 1467 1465 1464 1463 1461 1460 1460 1458
1532 1539 1550 1552 1554 1548 1535 1532 1522 1512 1508 1511 1513 1515 1516 1515 1514 1513 1511 1510 1508 1507 1505 1504 1502 1500 1499 1497 1494 1492 1489 1486 1483 1480 1476 1473 1470 1467 1465 1463 1460 1458 1456 1454 1452 1450 1448 1447 1446
1531 1537 1538 1549 1549 1551 1543 1532 1520 1514 1514 1514 1515 1516 1516 1515 1514 1513 1512 1510 1509 1507 1505 1503 1501 1499 1497 1494 1492 1489 1486 1482 1479 1475 1472 1468 1464 1461 1458 1455 1451 1449 1446 1444 1442 1438 1436 1435 1433
1529 1534 1543 1547 1552 1555 1547 1537 1527 1519 1517 1517 1516 1515 1515 1515 1514 1513 1512 1510 1508 1506 1504 1502 1499 1496 1494 1491 1488 1484 1481 1478 1474 1470 1466 1462 1458 1455 1451 1447 1443 1440 1437 1434 1431 1427 1425 1423 1421
1533 1534 1537 1546 1550 1555 1554 1539 1516 1513 1513 1515 1514 1514 1514 1514 1513 1512 1511 1509 1507 1505 1502 1499 1496 1493 1490 1487 1483 1479 1476 1472 1468 1464 1460 1456 1452 1447 1443 1439 1434 1430 1427 1424 1420 1416 1414 1411 1409
1527 1529 1535 1543 1544 1548 1552 1539 1511 1510 1511 1512 1512 1513 1513 1513 1512 1511 1509 1507 1505 1502 1499 1496 1493 1489 1486 1482 1478 1474 1470 1466 1462 1458 1454 1449 1444 1440 1435 1430 1425 1421 1416 1413 1409 1405 1402 1399 1396